Location: *
(30.0216°S, 148.7744°W)
Time: 23:09:08
(UTC+00:00)

Cosmos 2242 Rocket - Visible Passes

Search period start: 18 November 2025 00:00
Search period end: 28 November 2025 00:00
Orbit: 614 x 645 km, 82.5° (Epoch: 18 November)

Date Brightness Start Highest point End Pass type
(mag) Time Alt. Az. Time Alt. Az. Time Alt. Az.
18 Nov 4.7 13:24:24 10° S 13:28:40 45° E 13:32:52 10° NNE visible
19 Nov 3.5 13:44:48 10° S 13:49:15 77° W 13:53:36 10° N visible
20 Nov 6.4 12:29:08 10° SE 12:31:34 14° ESE 12:33:58 10° ENE visible
20 Nov 4.3 14:05:43 10° SSW 14:09:42 33° W 14:13:37 10° NNW visible
21 Nov 5.3 12:48:23 10° SSE 12:52:19 31° E 12:56:12 10° NE visible
22 Nov 3.8 13:08:30 10° S 13:12:57 71° E 13:17:18 10° NNE visible
23 Nov 3.8 13:29:10 10° SSW 13:33:27 49° W 13:36:49 15° NNW visible
24 Nov 5.8 12:12:32 10° SSE 12:15:56 21° ESE 12:19:00 11° NE visible
24 Nov 4.8 13:50:27 10° SW 13:53:50 22° W 13:56:18 14° NW visible
25 Nov 4.4 12:32:20 10° S 12:36:36 47° E 12:38:36 27° NE visible
26 Nov 3.4 12:52:44 10° S 12:57:10 74° W 12:58:18 48° NNW visible
27 Nov 6.1 11:36:59 10° SE 11:39:30 15° ESE 11:40:45 13° E visible
27 Nov 4.3 13:13:41 10° SSW 13:17:36 32° W 13:18:05 31° WNW visible
